DateTimeUTC,F1_A11,F1_S11,BsB_S11,BsG_S11,BsR_S11,BbsB_S11,BbsG_S11,BbsR_S11,BaB_A11,BaG_A11,BaR_A11,Tu_S11,T_S11,Uu_S11,U_S11,P_S11,T1_A11
2021-02-03T22:00:00Z,00000200,21000000,,,,,,,0000.17,-000.24,-000.16,16.7,23.8,,00.0,0619.8,30.9
2021-02-03T22:01:00Z,00000200,21000000,,,,,,,-000.03,-000.10,0000.19,16.7,23.8,,00.0,0619.8,30.9
2021-02-03T22:02:00Z,00000200,21000000,,,,,,,0000.37,0000.55,0000.39,16.7,23.8,,00.0,0619.8,30.9
2021-02-03T22:03:00Z,00000200,61000000,,,,,,,0000.39,0000.43,-000.02,16.7,23.8,,00.0,0619.8,30.9
2021-02-03T22:04:00Z,00000200,41000000,0001.10,-000.06,0000.10,0000.32,0000.10,-000.01,-000.08,0000.21,0000.03,17.1,23.7,,00.0,0620.6,31.0
2021-02-03T22:05:00Z,00000200,01000000,0000.11,0000.13,-000.07,0000.13,0000.26,-000.16,0000.24,0000.13,0000.19,17.2,23.7,,00.0,0620.7,31.0
2021-02-03T22:06:00Z,00000200,01000000,0000.28,-000.03,0000.19,0000.21,0000.02,-000.17,0000.06,-000.28,-000.46,17.3,23.7,,00.0,0620.7,31.0
2021-02-03T22:07:00Z,00000200,01000000,-000.17,0000.02,0000.02,0000.03,0000.17,-000.01,-000.38,0000.14,0000.40,17.4,23.7,,00.0,0620.7,31.0
2021-02-03T22:08:00Z,00000200,01000000,0000.33,-000.08,0000.18,0000.23,-000.03,-000.15,0000.37,-000.32,-000.21,17.4,23.7,,00.0,0620.8,31.0
2021-02-03T22:09:00Z,00000200,01000000,0000.56,0000.13,-000.04,0000.22,0000.38,0000.21,0000.01,0000.16,-000.21,17.4,23.8,,00.0,0620.8,31.0
2021-02-03T22:10:00Z,00000200,01000000,0000.36,0000.12,0000.03,0000.41,0000.17,-000.11,-000.32,0000.19,0000.52,17.4,23.7,,00.0,0620.8,31.0
2021-02-03T22:11:00Z,00000200,01000000,0000.23,0000.02,-000.10,0000.07,0000.06,0000.16,-000.02,0000.11,-000.56,17.3,23.7,,00.0,0620.8,31.0
2021-02-03T22:12:00Z,00000200,01000000,0000.04,-000.07,0000.15,0000.42,0000.40,0000.13,0000.34,-000.03,0000.32,17.3,23.7,,00.0,0620.7,31.0
2021-02-03T22:13:00Z,00000200,01000000,-000.32,-000.13,0000.21,0000.54,0000.07,-000.23,-000.19,-000.04,0000.05,17.3,23.7,,00.0,0620.7,31.0
2021-02-03T22:14:00Z,00000200,01000000,0000.51,0000.19,-000.23,0000.80,0000.15,-000.01,0000.03,-000.27,-000.17,17.2,23.7,,00.0,0620.7,31.0
2021-02-03T22:15:00Z,00000200,01000000,0000.28,-000.22,0000.21,0000.18,-000.06,0000.31,0000.00,-000.50,0000.22,17.2,23.6,,00.0,0620.6,31.0
2021-02-03T22:16:00Z,00000200,01000000,0000.13,-000.12,0000.23,0000.58,0000.14,0000.09,0000.04,0000.73,-000.17,17.2,23.6,,00.0,0620.7,30.9
2021-02-03T22:17:00Z,00000200,01000000,0000.26,-000.09,-000.05,-000.03,0000.12,-000.20,0000.47,0000.57,0000.38,17.2,23.6,,00.0,0620.7,31.0
2021-02-03T22:18:00Z,00000200,01000000,-000.42,-000.06,-000.33,0000.22,0000.04,0000.17,0000.04,-000.01,0000.50,17.3,23.7,,00.0,0620.6,31.0
2021-02-03T22:19:00Z,00000200,01000000,0000.34,0000.20,0000.15,0000.05,0000.09,-000.20,0000.11,0000.22,-000.15,17.4,23.7,,00.0,0620.6,31.0
2021-02-03T22:20:00Z,00000200,01000000,0000.78,0000.08,0000.19,0000.78,0000.43,-000.01,0000.26,-000.01,0000.26,17.4,23.7,,00.0,0620.6,31.0
2021-02-03T22:21:00Z,00000200,01000000,0000.48,-000.11,0000.28,0000.45,-000.00,0000.07,0000.04,-000.13,-000.14,17.5,23.8,,00.0,0620.6,31.0
2021-02-03T22:22:00Z,00000200,01000000,0000.74,0000.10,0000.18,0000.27,-000.12,0000.09,0000.04,0000.09,-000.12,17.5,23.8,,00.0,0620.5,31.0
2021-02-03T22:23:00Z,00000200,01000000,0000.74,0000.10,-000.12,0000.42,-000.16,0000.15,0000.51,0000.65,0000.36,17.5,23.8,,00.0,0620.5,31.0
2021-02-03T22:24:00Z,00000200,01000000,0000.06,0000.08,0000.04,0000.09,-000.07,0000.20,-000.15,-000.33,-000.10,17.4,23.8,,00.0,0620.6,31.0
2021-02-03T22:25:00Z,00000200,01000000,0000.27,0000.28,0000.22,0000.43,-000.13,-000.14,0000.17,0000.23,0000.03,17.4,23.7,,00.0,0620.6,31.0
2021-02-03T22:26:00Z,00000200,01000000,0000.71,-000.06,0000.06,0000.24,-000.01,-000.10,-000.19,0000.07,-000.09,17.4,23.7,,00.0,0620.6,31.0
2021-02-03T22:27:00Z,00000200,01000000,0000.86,0000.03,0000.08,0000.08,0000.03,0000.28,0000.26,0000.20,0000.36,17.4,23.7,,00.0,0620.6,31.0
2021-02-03T22:28:00Z,00000200,01000000,0000.00,0000.14,0000.09,0000.06,0000.22,-000.40,-000.24,-000.27,-000.12,17.3,23.7,,00.0,0620.7,31.0
2021-02-03T22:29:00Z,00000200,01000000,0000.64,0000.19,0000.32,0000.23,0000.25,0000.21,-000.02,0000.16,-000.05,17.3,23.7,,00.0,0620.8,31.0
2021-02-03T22:30:00Z,00000200,01000000,-000.17,-000.03,0000.22,-000.16,0000.06,0000.04,0000.11,-000.54,0000.05,17.2,23.7,,00.0,0620.8,30.9
2021-02-03T22:31:00Z,00000200,01000000,0000.29,0000.44,0000.17,0000.75,0000.17,0000.19,0000.41,0000.26,0000.27,17.2,23.6,,00.0,0620.8,30.9
2021-02-03T22:32:00Z,00000200,01000000,-000.05,-000.05,0000.08,0000.21,0000.17,0000.07,0000.10,0000.15,-000.29,17.3,23.7,,00.0,0620.7,30.9
2021-02-03T22:33:00Z,00000200,01000000,0000.63,0000.15,0000.06,0000.28,0000.13,0000.26,0000.08,0000.55,0000.45,17.3,23.7,,00.0,0620.7,31.0
2021-02-03T22:34:00Z,00000200,01000000,0000.84,0000.16,0000.22,0000.50,0000.07,-000.22,0000.47,0000.57,0000.07,17.4,23.7,,00.0,0620.7,31.0
2021-02-03T22:35:00Z,00000200,01000000,0000.49,0000.16,-000.01,-000.03,0000.01,0000.04,0000.15,-000.10,0000.20,17.5,23.8,,00.0,0620.7,31.0
2021-02-03T22:36:00Z,00000200,01000000,-000.18,0000.20,0000.20,0000.32,0000.05,0000.13,-000.09,0000.20,0000.03,17.5,23.8,,00.0,0620.7,31.0
2021-02-03T22:37:00Z,00000200,01000000,-000.12,0000.02,-000.38,0000.03,0000.06,-000.08,0000.07,-000.11,0000.14,17.6,23.8,,00.0,0620.7,31.0
2021-02-03T22:38:00Z,00000200,01000000,0000.52,-000.14,-000.14,-000.32,0000.14,0000.12,0000.18,0000.21,-000.18,17.5,23.8,,00.0,0620.8,31.0
2021-02-03T22:39:00Z,00000200,01000000,0000.01,-000.25,0000.09,0000.34,0000.12,0000.12,0000.11,-000.19,-000.05,17.5,23.8,,00.0,0620.8,31.0
2021-02-03T22:40:00Z,00000200,01000000,0000.46,0000.14,0000.11,0000.28,0000.07,-000.10,-000.01,0000.02,0000.37,17.5,23.8,,00.0,0620.9,31.0
2021-02-03T22:41:00Z,00000200,01000000,0000.33,0000.09,0000.18,0000.66,-000.06,0000.26,-000.08,-000.07,-000.18,17.4,23.8,,00.0,0620.9,31.0
2021-02-03T22:42:00Z,00000200,01010000,-000.35,0000.18,0000.04,0000.33,0000.06,0000.02,0000.40,0000.52,0000.42,17.4,23.8,,00.0,0620.9,31.0
2021-02-03T22:43:00Z,00000200,01000000,0000.36,-000.08,0000.06,0000.41,0000.13,-000.02,-000.07,-000.12,-000.26,17.4,23.7,,00.0,0620.9,31.0
2021-02-03T22:44:00Z,00000200,01000000,0000.18,0000.25,0000.06,0000.19,0000.07,-000.08,0000.04,0000.30,0000.29,17.3,23.7,,00.0,0620.9,31.0
2021-02-03T22:45:00Z,00000200,01000000,0000.71,0000.08,-000.02,0000.29,-000.06,0000.22,0000.06,-000.35,0000.03,17.3,23.7,,00.0,0620.8,31.0
2021-02-03T22:46:00Z,00000200,01000000,0000.15,0000.10,0000.08,0000.41,0000.08,-000.16,0000.46,0000.50,0000.03,17.3,23.7,,00.0,0620.8,30.9
2021-02-03T22:47:00Z,00000200,01000000,0000.29,-000.29,-000.12,-000.29,0000.20,-000.03,0000.08,0000.21,0000.22,17.3,23.7,,00.0,0620.8,30.9
2021-02-03T22:48:00Z,00000200,01000000,-000.02,-000.01,0000.02,-000.15,0000.20,0000.12,0000.19,0000.41,0000.28,17.4,23.7,,00.0,0620.8,31.0
2021-02-03T22:49:00Z,00000200,01000000,0000.04,0000.05,0000.03,0000.22,-000.09,0000.02,0000.21,-000.10,-000.43,17.5,23.8,,00.0,0620.8,31.0
2021-02-03T22:50:00Z,00000200,01000000,-000.22,0000.14,0000.07,0000.79,0000.06,0000.03,0000.21,0000.04,0000.51,17.6,23.8,,00.0,0620.8,31.0
2021-02-03T22:51:00Z,00000200,01000000,0000.31,0000.00,-000.05,0000.29,0000.24,-000.03,0000.05,0000.65,0000.01,17.7,23.9,,00.0,0620.8,31.0
2021-02-03T22:52:00Z,00000200,01000000,0000.89,-000.07,-000.04,0000.05,-000.01,-000.02,-000.10,-000.42,-000.21,17.7,23.9,,00.0,0620.8,31.0
2021-02-03T22:53:00Z,00000200,01000000,0000.34,0000.05,0000.21,0000.15,0000.20,0000.01,0000.12,0000.56,0000.19,17.8,23.9,,00.0,0620.8,31.0
2021-02-03T22:54:00Z,00000200,01000000,0000.51,0000.27,0000.07,0000.30,0000.15,-000.28,0000.10,-000.64,-000.24,17.8,24.0,,00.0,0620.8,31.0
2021-02-03T22:55:00Z,00000200,01000000,0000.64,0000.26,-000.19,0000.45,0000.00,-000.23,0000.51,0000.85,0000.32,17.7,24.0,,00.0,0620.8,31.0
2021-02-03T22:56:00Z,00000200,01000000,0000.71,0000.06,-000.08,0000.38,0000.16,0000.11,0000.04,-000.25,0000.07,17.7,23.9,,00.0,0620.8,31.0
2021-02-03T22:57:00Z,00000200,41000000,,,,,,,-001.08,-001.21,-000.42,17.7,24.0,,00.0,0620.8,31.0
2021-02-03T22:58:00Z,00000200,61000000,,,,,,,0000.52,0000.78,0000.17,17.3,24.0,,00.0,0619.9,31.0
2021-02-03T22:59:00Z,00000200,21000000,,,,,,,0000.29,0000.25,0000.25,17.2,24.1,,00.0,0619.9,31.0
